Погода в Торфяном

Россия / Кировская область     58°29′25″N   49°12′08″E
темп.,
°C
ветер,
м/с
пор.,
м/с
влажн.,
%
обл.,
%
осадки,
мм/ч
давл.,
гПа
погр.,
м
18 апреля, вс
вс1800:00+2с34850 0.0 102554
03:00+1с35885 0.0 102568
06:00+2ссв410875 0.0 1026352
09:00+3св5883100 0.0 1027781
12:00+6св67464 0.0 10291369
15:00+6всв68415 0.0 10301535
18:00+4всв59515 0.0 1031613
21:00+1св5116321 0.0 1032337
19 апреля, пн
пн1900:000всв511675 0.0 1033375
03:00−1всв411690 0.0 1035393
06:000всв410630 0.0 1035474
09:00+3в57425 0.0 10361364
12:00+6в57355 0.0 10351634
15:00+7в56345 0.0 10341674
18:00+5в36470 0.0 1034179
21:00+1в34620 0.0 103545
20 апреля, вт
вт2000:000вюв36670 0.0 1036111
03:00−1вюв36670 0.0 1037118
06:00+1вюв36580 0.0 1037221
09:00+5юв45340 0.0 10361040
12:00+8юв45290 0.0 10351351
15:00+9юв45290 0.0 10341398
18:00+7вюв34450 0.0 103380
21:00+3юв35580 0.0 103380
21 апреля, ср
ср2100:00+1юв39630 0.0 1032148
03:000вюв310658 0.0 1032188
06:00+2юв51256100 0.0 1031427
09:00+7юв71237100 0.0 1029974
12:00+11юв81332100 0.0 10271357
15:00+12ююв71433100 0.0 10251535
18:00+9ююв71438100 0.0 10251115
21:00+7ююв71542100 0.0 10241136
22 апреля, чт
чт2200:00+5ю71574100 0.0 1024935
03:00+4ююв61392100 0.0 1024840
06:00+4ю61296100 0.0 1025735
09:00+5ю61189100 0.1 1025690
12:00+7ю61078100 0.0 1026900
15:00+9ю61076100 0.0 10261121
18:00+7ю61185100 0.0 1027788
21:00+6ю51088100 0.2 1028597